RH
92 96 99 99 100 100 100 58 88 38 27 61 48 46 38 32 35 31 30 23 27 22 19 19 20 17 18 31 34 30 28 24 32 34 38 40 38 49 37 41 57 68 70 66
87 87 95 100 100 100 100 98 90 40 33 83 59 42 38 35 38 35 33 32 30 21 21 24 20 20 36 36 32 35 42 51 39 30 43 59 58 49 41 43 52 67 64 64
85 84 90 90 100 100 100 99 99 80 42 42 52 46 44 39 37 34 32 28 27 25 25 23 22 25 38 38 31 33 34 40 33 26 47 47 53 45 46 43 72 60 48 51
88 86 89 96 99 100 100 99 96 91 96 64 42 46 53 48 44 41 36 36 32 32 90 32 27 33 43 42 35 45 34 54 48 40 48 47 48 42 48 52 43 47 41 49
85 85 97 98 100 100 100 100 99 90 91 55 48 57 65 67 59 60 61 52 53 40 93 74 89 41 42 40 47 51 43 54 54 65 50 49 62 54 46 45 41 45 40 45
84 85 86 98 100 100 100 99 97 98 93 90 81 76 70 76 62 63 70 62 86 92 79 39 32 33 34 37 48 65 58 62 62 55 55 59 56 52 51 58 54 44 55 51
82 85 85 86 100 98 100 97 96 99 95 98 92 88 79 84 78 83 93 84 94 70 43 38 33 37 38 44 48 48 66 61 57 75 51 50 47 49 48 49 53 54 48 51
81 79 78 86 85 100 100 100 98 99 93 92 93 88 88 90 93 99 95 92 66 44 60 93 94 90 70 51 48 53 48 60 62 65 82 48 62 56 54 50 44 50 51 52
87 81 78 78 81 86 100 98 100 99 100 89 87 93 91 97 96 93 90 62 55 60 93 92 94 89 67 84 64 50 46 49 44 78 76 57 41 55 39 38 60 49 46 56
90 88 82 76 77 80 97 96 100 99 100 93 77 88 94 92 95 95 95 95 91 87 94 91 92 89 40 89 90 84 77 83 76 80 94 75 51 52 44 42 33 60 57 61
81 90 87 84 77 73 84 96 97 98 99 92 76 64 91 98 95 97 96 95 95 94 95 94 91 94 53 68 64 74 85 92 89 89 94 86 54 55 58 62 61 58 76 71
94 95 95 91 91 80 76 99 99 100 99 99 95 93 85 88 91 95 93 94 93 90 94 95 95 93 88 58 86 52 89 75 83 71 61 52 45 48 66 74 77 80 81 73
74 95 95 96 96 94 89 100 100 100 99 98 98 96 100 97 93 98 95 96 91 96 96 96 95 95 66 83 80 68 69 82 66 63 54 52 51 52 60 60 70 71 81 84
92 94 92 92 87 85 78 100 98 99 99 98 96 97 96 97 96 97 98 97 97 96 96 96 95 94 74 86 70 72 73 83 75 66 62 57 55 59 66 68 68 73 77 81
89 95 97 96 85 81 97 97 99 100 98 98 94 95 97 97 99 98 97 97 96 96 96 96 94 89 83 90 88 93 86 89 68 56 51 74 66 58 66 80 78 80 86 91
86 94 94 90 88 100 100 100 100 100 99 98 96 96 96 97 98 97 97 97 96 96 94 94 94 92 90 96 96 74 91 78 77 67 75 68 68 70 70 80 80 84 86 83
90 89 92 96 94 99 99 98 99 100 98 97 96 93 92 97 97 96 96 97 96 95 95 94 93 94 94 96 90 56 77 71 67 78 76 75 69 79 82 78 76 75 78 82
88 90 99 100 100 100 98 100 100 100 96 96 96 96 96 96 96 97 96 95 95 95 94 94 94 93 94 96 77 82 75 72 74 74 64 75 79 85 87 81 85 90 88 86
91 100 100 98 97 97 98 98 99 99 98 96 96 92 93 95 96 91 95 95 95 94 95 94 94 94 94 80 89 80 84 80 80 76 74 77 76 87 90 89 94 95 93 89
100 100 98 97 97 98 98 98 98 97 97 97 97 91 95 93 94 95 95 95 95 96 94 95 95 88 68 87 80 74 80 81 79 89 92 92 89 87 94 94 93 89 92 91
99 97 96 98 98 98 97 96 96 97 95 96 96 96 94 95 95 95 95 95 95 96 94 95 93 91 83 68 67 74 80 79 78 82 83 80 80 87 92 95 88 87 88 94
99 96 96 97 97 96 96 97 96 96 94 96 96 96 95 96 96 95 95 95 95 95 88 96 91 76 56 78 76 84 81 83 78 71 80 76 72 73 82 87 89 86 84 89
98 97 96 96 96 97 98 92 96 97 95 95 95 96 95 96 95 96 95 95 95 85 97 87 79 59 70 91 84 90 84 77 79 82 76 78 84 78 77 88 83 84 91 96
98 96 95 95 96 96 89 84 88 92 94 94 94 96 97 97 95 94 95 94 93 97 98 81 72 80 87 91 86 86 91 87 88 90 86 86 86 91 87 81 85 92 94 91
98 97 95 97 90 94 94 95 95 95 94 94 96 98 92 97 95 94 91 97 94 83 74 72 88 90 90 92 91 91 91 91 94 96 92 91 90 90 90 91 92 93 92 92
96 96 98 94 96 95 95 96 96 96 94 97 95 96 96 97 94 96 91 89 75 69 84 91 92 90 91 91 90 91 88 88 93 94 90 90 93 92 89 86 84 86 92 96
96 97 97 96 97 95 96 96 95 95 92 96 96 93 93 94 93 82 79 84 77 91 92 94 94 87 90 91 90 88 89 94 95 97 93 90 94 94 91 93 88 95 96 96
Wind_Speed
22 21 18 20 21 22 17 3 3 5 7 1 1 3 4 1 4 2 4 3 4 6 5 5 5 7 2 7 8 7 5 3 4 7 2 1 3 6 7 4 6 3 3 8
21 22 20 18 19 18 6 2 3 2 5 3 4 3 4 4 5 5 6 6 7 2 4 3 6 4 1 7 8 7 7 2 3 2 3 4 4 6 4 4 3 9 6 6
24 24 22 19 18 17 5 1 3 1 2 2 3 4 5 4 2 4 4 3 2 3 4 6 4 4 3 4 4 6 8 4 6 8 2 4 5 6 12 9 4 4 11 4
24 23 22 21 17 17 5 2 3 1 3 5 6 6 6 6 5 4 4 3 11 8 6 3 6 3 2 1 6 4 4 6 5 7 7 7 8 8 15 20 20 10 4 9
21 21 19 16 15 16 4 3 2 1 3 2 4 6 5 7 5 7 6 10 8 12 9 10 5 6 4 6 4 6 4 3 2 4 10 9 15 15 20 20 20 22 22 26
22 20 18 16 13 13 5 3 1 2 2 1 2 5 7 6 4 9 2 11 5 11 17 1 3 1 0 4 9 9 6 4 2 4 2 5 10 19 18 8 6 17 16 10
24 22 21 17 14 14 13 5 2 2 10 5 6 4 7 7 10 12 3 4 6 2 5 7 3 4 4 3 5 4 6 5 3 3 2 4 3 1 1 14 5 8 2 4
26 25 25 22 19 18 24 15 7 3 10 5 4 9 7 1 1 3 4 6 3 7 4 2 2 1 3 6 6 5 3 4 3 3 3 9 1 4 6 6 6 8 7 5
25 24 23 23 23 22 25 26 24 4 3 9 6 3 4 3 4 1 4 3 4 1 2 3 5 5 5 3 2 1 4 1 5 3 4 6 3 3 3 4 4 4 6 6
27 25 24 23 23 24 23 23 27 6 3 3 6 7 6 6 2 1 3 4 4 2 2 4 5 5 3 6 8 7 5 3 13 10 4 9 4 6 4 3 4 6 6 5
28 28 27 25 24 23 22 19 27 17 4 4 5 7 5 3 4 5 6 4 3 3 5 5 3 4 5 2 4 6 9 9 5 6 5 10 7 5 7 4 3 6 4 5
28 28 27 27 24 24 20 18 20 28 2 3 6 10 11 5 2 4 9 2 5 6 4 5 2 3 1 1 3 2 5 5 5 10 5 1 16 1 3 4 6 4 5 4
32 29 28 26 26 23 22 23 19 10 0 3 1 3 7 12 10 10 4 2 5 5 1 3 2 4 4 5 6 4 4 4 3 1 2 5 13 2 5 4 4 5 4 5
27 29 27 29 30 27 23 22 24 15 3 4 2 1 0 2 8 11 2 4 5 5 2 2 2 3 2 2 1 3 2 6 4 5 4 2 6 8 7 6 6 5 5 5
27 29 28 29 30 27 19 21 27 25 5 3 1 1 1 3 7 10 7 10 4 2 3 2 3 1 2 1 1 4 6 8 6 6 5 4 4 7 8 8 6 6 6 3
30 30 30 30 27 14 10 2 13 26 10 2 2 2 1 1 4 5 8 7 1 1 2 2 2 1 2 2 3 4 6 3 3 3 4 3 4 6 5 6 5 6 7 5
30 32 31 37 14 18 4 4 1 19 14 2 1 1 1 3 2 0 1 2 1 1 2 2 2 2 3 2 3 4 6 6 4 4 6 3 2 4 6 7 9 7 6 5
31 33 23 9 17 12 3 9 18 20 9 2 2 1 1 5 2 1 1 1 1 2 1 2 2 2 1 5 8 2 4 7 5 6 2 3 7 7 6 7 7 4 4 4
34 9 16 7 2 2 4 11 11 6 2 3 2 4 3 3 1 1 1 1 2 1 2 2 4 3 6 7 6 7 8 7 9 7 5 6 6 7 7 5 4 4 3 3
17 7 3 1 3 17 13 2 1 1 2 2 2 1 2 2 1 1 2 1 1 2 2 2 3 5 13 6 6 6 9 7 14 8 3 3 3 6 6 7 5 6 5 4
2 2 2 9 8 1 1 1 2 1 2 1 1 2 3 0 2 2 1 1 1 2 1 2 2 4 4 6 10 7 9 9 8 3 4 6 5 7 6 4 9 9 8 6
5 12 7 3 1 2 1 1 2 2 3 1 3 2 2 1 1 2 1 1 1 3 2 2 3 4 1 5 7 8 10 9 7 6 9 10 8 9 10 9 10 10 6 5
9 3 2 2 1 1 6 6 3 2 4 4 3 2 2 2 1 2 1 3 2 2 2 3 4 1 3 4 6 7 9 13 11 7 11 11 10 9 9 8 6 6 6 5
2 4 4 4 4 5 3 2 2 2 3 6 4 2 2 1 2 2 3 1 0 2 3 5 2 4 5 5 5 9 7 8 8 8 12 10 11 9 7 6 5 6 7 5
3 3 4 5 1 2 0 1 2 1 5 5 3 2 2 1 3 1 3 2 4 5 4 2 2 3 7 7 4 7 8 7 6 10 10 11 10 9 7 5 5 6 6 7
1 1 2 1 1 1 2 2 2 1 5 2 2 2 2 2 3 3 6 3 5 3 3 2 2 6 5 6 5 5 10 13 12 12 10 11 10 8 5 5 6 7 8 8
2 2 1 1 1 2 2 2 3 5 5 2 2 4 3 2 0 3 4 4 3 2 2 1 1 5 7 6 6 10 14 13 13 11 10 8 8 6 5 4 6 6 6 6
Wind_Direction
327 321 317 313 302 304 300 257 254 162 150 65 116 231 216 163 202 154 221 258 248 225 198 234 247 231 248 154 149 168 187 158 223 213 112 61 190 187 167 172 211 217 154 275
331 335 330 328 309 304 280 254 279 200 156 213 218 244 259 235 172 205 179 223 209 167 232 257 206 220 34 161 160 166 180 204 331 280 32 353 209 194 174 88 93 204 154 257
322 325 335 334 324 311 263 270 259 275 22 340 184 195 224 243 232 200 195 211 154 155 224 213 268 247 199 197 186 170 160 193 209 242 156 124 202 199 198 189 182 192 227 260
318 324 325 327 325 310 253 176 259 123 212 240 200 186 183 186 225 226 204 211 213 164 224 238 235 158 120 246 229 168 161 221 218 264 252 215 209 205 203 210 219 215 237 222
301 312 320 320 321 305 240 286 239 42 289 324 204 177 210 218 225 166 210 236 198 196 215 198 186 141 182 208 159 164 190 251 131 267 250 260 258 233 237 228 231 247 260 274
298 296 303 313 312 295 258 248 252 166 173 158 161 207 218 234 169 214 212 210 155 213 233 323 64 160 339 182 172 181 172 196 133 275 2 321 281 239 217 199 203 226 240 253
303 296 293 290 291 279 260 234 182 226 279 204 199 222 204 243 231 285 359 129 158 159 134 113 102 58 24 205 213 180 162 149 166 279 321 265 248 202 328 216 231 213 158 175
302 304 296 290 279 268 243 236 190 194 273 254 219 235 246 262 270 240 199 187 210 166 51 107 236 328 281 228 201 191 177 162 207 252 238 305 301 185 174 175 255 192 189 161
298 297 295 293 285 275 245 238 239 208 260 251 220 214 186 244 217 244 196 48 133 54 162 143 220 230 211 230 225 85 165 11 195 145 243 251 222 163 142 107 276 177 147 161
298 298 295 292 291 283 282 253 239 210 232 218 180 240 240 149 169 216 117 146 158 33 178 199 212 226 176 198 187 174 164 204 218 217 252 281 178 157 159 110 226 156 165 163
296 297 295 292 291 287 284 266 245 213 219 257 202 184 163 140 184 192 136 118 181 169 198 205 202 212 209 196 171 174 176 172 190 186 221 267 137 73 178 196 58 148 163 178
302 296 295 295 291 289 284 268 251 229 198 295 222 221 219 199 150 132 184 151 151 164 178 206 185 190 162 200 248 119 217 199 187 198 216 69 187 110 176 144 146 184 163 187
292 298 296 296 292 286 279 273 233 198 296 237 95 223 222 224 218 194 154 214 164 182 188 143 161 218 171 187 225 188 224 157 240 27 189 202 203 168 153 166 138 145 156 154
295 297 293 292 295 287 279 260 239 206 133 262 150 105 225 244 222 209 224 129 111 111 151 158 177 208 178 219 247 221 140 143 182 263 246 288 238 202 170 159 139 136 142 156
296 299 295 296 293 288 283 269 241 217 204 242 168 146 186 258 224 196 174 158 134 155 169 182 205 145 160 155 256 230 182 181 184 223 189 157 232 183 150 151 169 165 149 169
299 302 301 304 296 248 246 276 223 213 195 153 228 74 78 180 200 164 166 153 132 138 162 173 161 100 184 199 237 244 194 183 159 230 137 102 74 112 122 147 158 154 173 177
300 300 303 309 266 208 183 223 206 190 158 118 219 49 39 84 95 266 161 131 134 139 161 193 156 185 161 214 237 210 192 161 153 155 115 57 205 180 151 139 153 165 162 183
297 298 299 197 181 153 110 104 144 160 105 61 162 245 247 185 185 157 295 130 158 178 169 140 185 154 206 249 232 190 117 118 135 170 41 148 120 111 130 132 137 137 176 194
302 210 138 127 72 117 151 148 154 155 148 179 134 157 214 149 89 105 142 219 195 149 224 195 178 175 223 231 197 178 164 174 169 138 102 112 120 143 153 152 158 164 209 204
160 157 83 64 358 127 131 100 162 17 359 65 135 109 151 148 135 119 144 285 243 221 205 134 233 250 244 206 201 166 166 151 139 123 148 139 151 182 183 194 183 187 194 187
237 55 72 132 131 103 28 149 140 310 336 85 117 144 136 212 146 140 233 201 173 242 164 237 251 262 234 197 174 150 152 159 164 114 121 141 160 175 175 179 193 195 197 204
181 120 117 119 68 34 96 196 351 192 236 165 131 138 108 118 104 119 225 184 172 245 109 251 256 255 188 124 133 134 148 140 125 128 127 141 139 152 162 168 182 194 204 216
113 81 88 156 317 244 181 206 218 227 169 176 163 137 127 134 83 78 140 167 195 109 231 243 239 296 89 112 115 111 122 128 123 116 130 143 134 132 145 157 159 174 198 227
180 162 199 205 189 245 204 200 128 103 148 148 129 108 130 136 120 138 141 49 240 234 243 236 244 200 147 124 123 125 141 144 141 146 157 154 153 159 167 155 170 198 223 239
224 186 233 215 142 28 357 107 112 107 143 127 111 87 114 113 114 79 114 150 239 225 239 241 250 159 136 138 121 124 135 136 143 159 160 158 159 161 167 190 212 228 246 253
226 214 95 156 158 177 201 165 127 122 144 97 77 123 141 151 129 164 211 193 229 243 226 262 127 131 131 131 130 122 139 150 155 159 159 161 169 175 183 202 222 235 244 254
198 253 279 135 100 168 170 148 161 160 162 182 128 150 180 89 161 242 194 216 236 257 295 97 77 148 142 124 114 134 149 149 149 143 151 152 167 175 176 208 239 232 241 248